Location: Fuller Park
(33.8686°N, 117.9781°W)
Time: 09:33:48
(UTC+00:00)

Cosmos 1300 - Pass Details

Date: 03 August 2024
Orbit: 455 x 456 km, 82.5° (Epoch: 10 September)

Event Time Altitude Azimuth Distance (km) Brightness Sun altitude
Exits shadow 12:29:31 10° 237° (WSW) 1,642 4.6 -7.7°
Reaches altitude 10° 12:29:35 10° 237° (WSW) 1,623 4.5 -7.6°
Maximum altitude 12:32:07 18° 283° (WNW) 1,206 4.1 -7.2°
Drops below altitude 10° 12:34:39 10° 329° (NNW) 1,634 5.2 -6.7°
Sets 12:37:15 0° 348° (NNW) 2,516 6.4 -6.2°
